Temperature
25 23 23 24 24 25 24 24 24 24 25 24 23 22 22 22 22 22 22 22 22 22 22 22 22 21 21 21 20 20 20 20 20 19 19 19 19 19 19 19 18 18 18 18
23 24 25 25 25 25 25 24 24 24 24 24 23 23 22 22 22 22 22 22 22 22 22 22 22 22 21 21 21 21 20 20 20 19 19 19 19 19 19 19 18 18 18 18
25 25 25 25 25 25 24 24 24 24 24 24 24 23 22 22 22 22 23 23 23 23 23 23 22 22 22 22 21 21 21 20 20 20 19 19 19 19 19 19 19 19 19 18
24 25 26 25 25 25 24 25 25 24 23 22 23 22 22 21 21 22 22 22 23 23 23 23 23 22 22 22 22 21 21 20 20 20 19 19 19 19 19 19 19 19 19 19
24 25 25 26 26 25 25 25 24 24 22 21 22 22 21 21 21 22 22 23 23 23 23 23 23 23 23 22 22 21 21 21 20 20 20 19 19 19 19 19 19 19 19 19
24 25 25 26 26 25 25 23 22 20 20 21 21 21 21 20 21 22 22 23 23 24 24 24 24 23 23 22 22 21 21 21 20 20 20 20 20 20 19 19 19 19 19 19
25 25 25 26 25 25 24 22 21 22 20 21 21 21 21 22 22 22 23 23 24 24 24 24 24 23 23 23 22 22 21 21 21 20 20 20 20 20 20 20 19 19 19 19
23 23 25 25 25 24 23 22 21 22 21 20 21 21 22 23 23 23 24 24 24 24 24 24 24 24 24 23 22 22 22 22 21 21 21 21 20 20 20 20 19 19 19 19
21 23 24 25 25 24 23 21 21 20 20 21 21 21 22 23 22 22 23 23 24 24 24 24 24 24 24 23 23 23 22 22 22 21 21 21 21 20 20 20 20 19 19 19
21 23 24 24 24 23 22 20 18 19 20 21 22 22 22 23 22 21 21 22 23 24 24 24 24 24 24 24 23 23 23 22 22 22 21 21 21 21 20 20 20 20 19 19
21 22 23 24 24 23 22 21 19 18 19 20 21 22 22 22 21 21 21 22 23 24 24 24 24 24 24 24 23 23 23 23 22 22 22 21 21 21 21 20 20 20 19 19
19 18 20 22 23 23 23 21 19 21 19 18 19 21 22 21 21 21 21 22 23 24 24 24 24 24 24 24 23 23 23 23 22 22 22 21 21 21 21 20 20 20 20 19
19 18 20 22 22 22 22 21 19 18 17 17 19 22 21 20 20 21 21 22 23 23 23 23 23 23 23 23 23 23 23 23 22 22 22 21 21 21 21 21 20 20 20 19
19 17 19 21 21 21 21 21 19 19 19 18 19 21 21 21 20 20 21 22 22 22 23 23 23 23 23 23 23 23 23 23 22 22 22 21 21 21 21 21 20 20 20 20
17 18 19 19 20 21 21 21 20 20 20 20 20 20 21 20 20 20 21 21 21 22 22 23 23 23 23 23 23 23 22 22 22 22 22 21 21 21 21 21 20 20 20 20
15 17 18 20 20 21 21 21 21 21 20 20 21 20 19 20 20 20 20 20 20 21 22 22 22 23 23 23 23 22 22 22 22 22 22 21 21 21 21 20 20 20 20 19
14 16 17 18 19 20 20 20 21 20 20 20 20 20 19 18 18 19 20 20 21 21 22 22 22 23 23 23 23 22 22 22 22 21 21 21 21 21 21 20 20 20 20 19
14 14 14 16 19 20 20 20 20 20 20 19 19 19 18 18 19 20 21 21 21 21 22 22 22 22 23 23 23 22 22 22 21 21 21 21 20 20 21 20 20 20 20 19
13 14 14 14 16 18 19 19 19 19 19 18 18 18 18 18 19 19 20 21 21 21 22 22 22 22 22 22 22 22 22 21 21 21 21 21 20 20 20 20 20 20 19 19
12 13 14 14 17 18 18 19 19 19 19 18 17 17 17 18 18 18 20 20 21 21 21 21 21 21 21 21 21 21 21 21 20 20 20 20 20 20 20 20 20 19 19 19
14 13 13 14 16 16 17 17 19 19 18 18 17 17 17 17 18 19 19 20 20 20 21 21 21 21 21 21 21 20 20 20 20 20 20 20 20 20 20 19 19 19 18 18
13 13 13 13 15 16 16 17 17 16 17 17 17 18 18 18 18 19 19 19 19 19 20 20 20 20 20 20 20 20 20 20 20 20 20 20 19 19 19 19 19 18 18 18
12 12 12 13 14 14 15 15 16 16 16 17 17 18 18 18 18 18 18 18 19 19 19 19 19 19 19 19 19 19 19 19 19 19 19 19 19 19 18 18 18 18 18 17
12 11 11 12 13 14 15 15 16 17 17 17 17 18 18 18 18 18 18 18 18 18 18 18 18 19 19 19 19 19 19 18 18 18 18 18 18 18 18 17 17 17 17 17
12 11 11 12 13 14 15 15 16 16 17 17 17 17 17 17 17 17 17 17 17 17 17 17 18 18 18 18 18 18 18 18 18 18 18 17 17 17 17 17 17 17 16 16
10 11 12 12 13 12 14 15 16 16 16 16 17 17 17 17 17 17 17 17 17 17 17 17 17 17 17 17 17 17 17 17 17 17 17 16 16 16 16 16 16 16 15 15
Wind_Speed
3 5 5 8 9 6 6 5 4 5 3 4 5 5 7 10 9 10 9 9 10 11 8 6 7 7 6 6 7 7 6 5 5 3 3 2 2 1 1 2 3 3 4 4
4 3 7 6 5 4 5 4 3 2 2 4 3 4 5 9 12 12 12 12 11 9 7 7 7 7 8 8 8 8 7 7 6 4 3 2 2 2 1 1 1 3 3 4
8 6 5 6 5 5 4 6 6 4 2 3 2 4 3 5 6 8 9 9 10 12 11 10 9 8 8 9 9 9 8 7 6 5 4 3 3 2 1 1 1 2 3 4
6 5 4 5 6 7 5 6 7 5 4 1 2 3 6 5 6 9 10 10 11 11 11 10 10 9 10 10 9 8 8 7 6 6 5 5 3 3 3 2 2 1 2 4
6 4 4 5 6 8 6 3 5 4 5 2 1 2 7 1 6 11 12 13 12 12 12 12 13 12 11 10 9 8 7 7 6 6 6 5 3 3 2 2 2 1 1 2
5 3 5 6 3 6 6 7 7 6 5 1 4 4 7 5 9 8 11 12 12 12 12 12 11 10 9 9 9 8 8 7 6 6 6 6 5 4 3 3 3 2 1 1
3 4 3 4 3 3 5 7 4 3 2 6 3 4 9 8 8 9 10 12 12 12 12 12 12 12 11 11 10 9 9 8 7 7 6 6 6 6 5 4 3 3 2 2
4 6 5 5 7 7 6 9 8 6 6 5 1 6 8 6 5 5 6 7 9 11 11 12 13 13 13 13 11 10 10 9 8 8 7 6 5 4 4 4 4 4 3 3
7 7 4 4 4 10 7 5 7 7 3 1 5 6 8 3 2 2 4 6 8 10 11 12 12 12 13 13 13 13 11 9 9 9 7 6 6 5 5 4 3 3 3 3
7 4 5 2 4 3 6 9 7 7 6 4 5 5 5 6 5 4 5 7 7 8 9 10 11 12 12 12 11 11 11 11 9 8 8 7 6 6 5 4 4 3 3 2
4 4 4 1 5 7 5 5 6 6 6 7 4 7 6 8 6 6 7 6 7 8 9 9 9 10 10 9 10 10 10 9 8 8 7 6 6 6 5 4 4 4 3 2
2 5 3 6 4 3 6 8 8 7 5 5 5 7 4 5 5 5 6 5 4 6 7 8 8 8 8 9 9 10 9 9 9 8 7 7 6 5 5 5 4 4 4 3
3 5 1 5 4 2 2 3 5 6 6 6 5 7 3 1 1 2 3 4 4 4 5 6 6 7 7 8 8 9 9 9 8 7 7 6 6 6 6 6 5 5 4 3
4 4 6 9 7 4 2 3 4 6 5 6 8 7 5 3 2 3 3 4 4 5 5 6 6 6 6 6 7 7 8 8 8 8 7 7 7 7 6 6 5 5 4 4
4 3 3 5 5 3 4 5 7 7 8 9 8 8 8 7 6 5 3 3 5 4 4 5 5 5 5 6 6 6 6 7 8 8 8 8 7 6 6 5 5 4 4 5
4 3 1 2 2 2 3 4 6 6 4 5 4 6 5 3 2 2 3 4 4 4 4 5 5 5 6 6 6 6 6 7 8 8 8 7 6 6 6 5 5 4 4 3
1 3 2 3 3 1 4 5 6 4 3 6 7 7 2 0 2 4 4 4 5 5 5 5 5 6 6 6 6 6 6 6 7 7 7 6 6 6 5 5 4 4 4 4
5 4 3 1 1 5 7 2 4 4 2 3 3 3 3 3 3 3 3 4 4 4 3 4 4 4 4 4 5 5 5 6 6 5 4 5 6 6 5 5 5 5 4 4
6 7 4 3 3 4 5 2 3 4 2 1 3 2 1 1 3 2 1 2 3 3 2 3 3 3 3 4 5 7 6 5 6 6 5 5 6 5 5 5 5 5 4 4
4 4 5 4 4 6 6 4 2 4 3 2 3 4 3 4 2 3 2 0 1 1 1 2 2 2 2 2 4 6 6 5 5 5 5 5 6 6 6 6 5 4 4 4
3 3 3 4 4 6 5 5 1 5 6 3 3 4 5 4 4 3 1 1 1 2 2 3 4 3 2 2 4 5 5 5 5 4 4 4 5 6 6 5 4 3 3 3
4 4 4 4 4 6 4 2 2 4 2 1 2 2 3 3 2 2 2 2 3 3 3 4 4 3 2 2 4 4 4 4 3 4 3 3 3 3 4 4 4 4 4 3
3 5 5 6 6 4 2 2 3 2 1 2 1 2 3 3 2 2 2 2 2 3 3 3 4 4 2 2 3 4 3 2 3 3 3 3 3 3 4 5 5 4 3 3
2 1 2 2 4 3 4 3 3 1 1 2 1 2 3 3 2 2 2 1 1 2 2 3 3 3 2 2 2 3 2 2 3 3 3 3 3 3 2 2 3 3 3 3
4 2 1 3 4 4 4 3 4 3 2 3 2 2 2 3 3 3 2 2 2 1 1 2 2 2 2 1 1 1 2 3 3 3 2 2 2 3 3 2 1 1 2 3
4 5 5 7 6 4 5 4 3 2 2 2 1 2 2 1 2 2 1 1 2 2 2 1 1 1 1 1 1 0 1 3 3 2 2 2 2 2 3 3 2 4 1 0
Wind_Direction
99 102 177 201 194 181 161 163 201 232 202 163 207 216 194 186 191 199 202 205 208 218 219 201 191 183 173 172 172 175 169 165 149 139 144 144 162 170 165 182 183 181 178 170
65 220 214 186 176 152 155 175 218 271 173 164 216 249 210 195 202 203 204 208 211 213 211 203 191 181 183 183 181 179 178 172 171 169 157 147 139 141 164 171 170 185 184 183
186 220 174 153 165 178 195 194 201 194 64 51 74 320 235 223 214 212 211 208 208 208 208 204 195 189 187 189 187 187 184 178 178 165 130 103 84 67 91 120 193 202 184 183
216 226 174 170 188 170 230 213 181 152 119 290 111 270 270 225 221 219 217 212 211 209 206 202 196 193 195 194 186 183 182 181 177 163 155 153 161 177 193 184 195 207 182 182
227 192 172 203 207 174 203 152 138 132 125 67 38 187 284 218 229 230 222 218 214 207 201 199 198 197 197 187 182 183 180 181 176 170 170 167 176 192 181 164 169 197 197 187
233 226 192 199 193 158 133 81 63 56 77 268 226 180 271 229 222 228 221 217 212 205 199 200 197 190 188 181 178 179 180 188 182 178 177 179 188 188 176 186 191 203 209 211
303 285 238 159 119 90 111 102 55 14 7 249 226 193 247 244 227 220 218 213 207 201 196 195 190 187 186 184 184 183 185 194 187 185 189 191 192 187 192 198 196 203 217 227
190 264 233 184 172 176 175 146 159 186 213 262 229 226 251 259 244 227 218 206 196 195 195 195 194 190 188 187 187 186 190 195 190 191 198 195 190 189 199 202 198 205 216 226
182 239 275 218 179 146 146 175 160 137 153 221 267 276 300 294 287 232 204 186 191 194 193 193 190 189 188 188 189 190 191 194 193 195 195 194 191 193 200 203 205 214 220 223
164 218 276 257 101 57 145 144 110 132 154 223 279 269 248 258 247 236 207 198 200 191 188 190 188 189 190 191 189 185 189 195 194 191 195 197 193 196 196 193 201 207 215 208
134 170 295 30 169 181 122 119 120 126 152 164 228 262 229 221 218 213 219 210 200 193 188 186 186 187 184 182 182 187 188 187 188 189 190 187 189 191 188 195 205 205 202 190
138 130 237 261 265 199 163 166 151 156 195 175 184 257 279 224 221 210 212 209 201 190 178 176 177 175 176 180 183 187 187 188 191 187 182 188 188 184 190 200 205 200 200 199
124 115 84 334 334 15 114 150 154 131 129 157 177 255 302 336 255 230 215 211 181 170 164 163 162 170 179 181 181 184 185 189 186 177 178 182 186 190 199 203 202 199 199 195
119 124 172 201 218 206 203 184 161 139 159 189 211 235 280 272 241 251 237 203 171 161 162 164 168 175 178 177 177 181 184 181 176 173 179 188 194 196 200 200 196 194 190 189
95 147 204 231 244 211 210 212 192 191 187 185 213 218 239 238 223 218 207 169 148 155 159 165 177 178 173 174 176 176 177 176 174 173 184 197 196 190 190 191 196 194 192 199
57 133 143 286 265 223 243 231 204 209 191 199 200 237 255 252 175 163 167 154 159 173 178 181 181 180 177 179 180 175 177 177 171 176 190 190 184 185 188 193 192 189 189 190
74 118 113 246 287 38 252 234 199 187 193 179 203 228 233 165 186 181 183 173 181 188 184 182 184 186 187 184 176 176 182 171 169 180 184 181 179 184 188 189 185 192 196 195
152 127 140 175 96 212 242 246 161 165 205 198 192 208 192 203 210 181 161 172 188 192 185 182 179 183 187 173 158 156 152 150 154 168 179 175 175 186 183 180 191 201 200 201
168 148 140 142 184 260 287 251 172 171 241 221 171 161 133 80 67 28 51 145 182 191 195 184 181 176 166 158 151 140 139 145 154 170 177 178 180 184 185 191 200 201 196 200
95 117 132 144 166 218 242 283 291 137 246 261 168 162 146 100 121 256 303 145 154 132 144 140 120 97 111 133 134 136 145 151 170 187 190 181 176 179 188 192 193 192 190 197
73 80 143 173 209 254 268 295 4 163 233 258 191 172 157 163 197 223 236 130 133 113 111 118 113 112 132 132 126 137 149 173 186 175 172 177 180 185 189 179 167 158 165 173
168 160 177 159 190 242 311 12 160 215 274 224 168 156 147 140 115 104 111 113 107 96 98 109 118 117 118 123 132 152 177 186 170 153 155 168 173 179 171 159 159 155 153 159
196 192 186 189 212 252 314 260 261 237 252 286 183 133 129 117 111 102 108 108 110 113 112 113 130 131 126 131 149 164 197 177 155 144 162 167 167 170 164 163 162 157 160 167
266 155 161 253 273 288 305 306 312 316 282 302 202 137 120 127 135 123 118 111 111 111 119 122 125 138 154 167 170 184 187 154 140 155 170 164 156 149 146 152 162 165 172 177
235 181 182 250 265 312 319 319 325 340 5 22 35 60 99 131 147 156 152 161 159 143 124 139 149 168 202 186 168 182 156 140 143 154 158 157 154 146 131 116 118 160 207 204
227 205 205 234 233 220 260 287 308 323 333 352 47 17 3 138 175 166 173 184 169 160 148 134 142 170 253 210 189 181 165 156 157 162 167 165 156 142 135 126 79 48 53 78
Height
1475 1482 1488 1486 1484 1486 1490 1496 1499 1495 1489 1493 1497 1497 1495 1496 1498 1500 1501 1503 1504 1506 1508 1511 1513 1514 1516 1517 1519 1520 1522 1523 1525 1526 1527 1528 1530 1531 1532 1533 1535 1536 1538 1539
1481 1484 1477 1477 1480 1484 1489 1496 1497 1493 1488 1492 1497 1497 1493 1493 1494 1495 1497 1499 1501 1504 1506 1509 1511 1513 1514 1516 1518 1520 1522 1523 1525 1526 1527 1528 1530 1531 1532 1534 1535 1536 1538 1539
1480 1477 1473 1477 1482 1487 1489 1494 1494 1495 1492 1492 1497 1501 1496 1492 1492 1494 1496 1497 1499 1501 1503 1506 1508 1510 1513 1515 1517 1519 1521 1523 1524 1526 1527 1528 1530 1531 1532 1534 1535 1537 1538 1539
1475 1471 1473 1477 1480 1483 1492 1483 1486 1491 1500 1508 1503 1518 1499 1493 1492 1491 1492 1493 1494 1497 1500 1502 1505 1508 1511 1513 1516 1518 1521 1522 1524 1525 1527 1528 1529 1530 1532 1533 1535 1537 1538 1539
1473 1469 1471 1476 1475 1477 1481 1479 1484 1491 1501 1510 1508 1515 1506 1494 1494 1488 1486 1488 1490 1493 1496 1498 1502 1505 1508 1512 1515 1517 1520 1522 1523 1525 1526 1528 1529 1530 1531 1533 1534 1536 1537 1538
1468 1465 1466 1468 1469 1471 1476 1484 1492 1501 1509 1521 1511 1516 1510 1496 1487 1482 1481 1483 1485 1489 1492 1495 1499 1503 1506 1510 1513 1516 1518 1520 1522 1524 1526 1527 1528 1529 1530 1532 1533 1535 1536 1537
1473 1467 1464 1464 1471 1474 1478 1497 1518 1521 1530 1525 1509 1512 1504 1481 1476 1474 1474 1477 1480 1484 1488 1491 1495 1499 1503 1506 1510 1514 1516 1518 1521 1523 1525 1526 1527 1528 1530 1531 1532 1534 1535 1536
1483 1483 1466 1463 1468 1476 1480 1489 1515 1527 1530 1522 1510 1511 1489 1473 1470 1470 1471 1473 1476 1480 1483 1487 1490 1495 1499 1503 1507 1511 1514 1516 1519 1521 1523 1525 1526 1527 1528 1530 1531 1532 1533 1534
1483 1481 1462 1460 1460 1467 1481 1488 1488 1509 1516 1520 1513 1500 1483 1470 1469 1468 1469 1471 1473 1476 1479 1483 1487 1491 1495 1500 1503 1507 1510 1513 1516 1519 1521 1523 1524 1526 1527 1528 1529 1530 1531 1532
1470 1478 1465 1460 1461 1465 1470 1480 1497 1509 1523 1525 1512 1503 1494 1476 1472 1469 1468 1469 1470 1473 1476 1480 1484 1488 1492 1496 1500 1504 1507 1510 1513 1516 1518 1520 1522 1524 1525 1526 1527 1528 1529 1530
1466 1476 1471 1465 1467 1471 1476 1482 1491 1504 1506 1519 1521 1505 1473 1470 1468 1467 1466 1467 1468 1470 1473 1477 1481 1485 1489 1493 1497 1500 1503 1507 1510 1513 1515 1517 1520 1521 1523 1524 1525 1526 1527 1528
1467 1477 1482 1472 1462 1460 1464 1474 1484 1497 1506 1509 1511 1499 1465 1464 1463 1464 1464 1465 1466 1468 1471 1475 1479 1483 1487 1490 1494 1497 1500 1503 1507 1509 1512 1515 1517 1519 1520 1521 1523 1524 1525 1526
1466 1478 1488 1483 1476 1467 1467 1471 1475 1484 1498 1508 1508 1492 1464 1462 1463 1462 1463 1464 1465 1467 1470 1473 1477 1480 1484 1488 1491 1494 1497 1501 1504 1507 1509 1512 1514 1516 1517 1519 1520 1522 1523 1524
1461 1476 1483 1487 1480 1471 1471 1471 1474 1480 1493 1499 1493 1481 1468 1464 1464 1462 1462 1463 1464 1467 1469 1471 1474 1478 1481 1485 1488 1492 1495 1498 1501 1504 1506 1508 1510 1512 1514 1516 1517 1519 1520 1521
1462 1474 1472 1470 1465 1465 1466 1466 1469 1472 1475 1482 1478 1475 1466 1462 1461 1460 1461 1462 1464 1466 1468 1470 1473 1475 1479 1483 1486 1489 1492 1495 1498 1500 1502 1504 1507 1509 1511 1513 1515 1516 1517 1518
1466 1472 1471 1470 1464 1464 1465 1462 1463 1465 1467 1469 1468 1469 1460 1459 1459 1460 1460 1461 1463 1464 1466 1469 1471 1474 1477 1480 1483 1486 1489 1492 1494 1497 1499 1502 1504 1507 1508 1510 1512 1513 1513 1514
1470 1473 1478 1479 1469 1465 1472 1462 1461 1462 1461 1463 1467 1463 1458 1459 1459 1459 1459 1461 1462 1463 1464 1467 1469 1471 1474 1477 1480 1482 1485 1488 1491 1494 1496 1498 1501 1503 1505 1507 1508 1509 1510 1511
1470 1475 1481 1483 1476 1483 1466 1453 1454 1457 1458 1457 1456 1456 1456 1456 1456 1457 1458 1459 1460 1462 1463 1465 1467 1469 1472 1475 1477 1480 1483 1485 1488 1491 1493 1494 1497 1500 1501 1503 1504 1505 1506 1507
1462 1471 1481 1487 1485 1476 1462 1454 1454 1457 1459 1455 1455 1455 1455 1455 1455 1458 1458 1459 1460 1462 1463 1465 1467 1468 1470 1472 1474 1477 1479 1482 1484 1487 1489 1491 1494 1496 1497 1499 1500 1501 1502 1503
1462 1466 1477 1483 1482 1481 1463 1451 1450 1454 1461 1453 1453 1453 1454 1455 1461 1460 1458 1458 1460 1461 1463 1464 1466 1468 1469 1471 1473 1475 1477 1479 1481 1484 1486 1488 1491 1492 1493 1495 1496 1497 1498 1499
1469 1473 1477 1480 1479 1470 1457 1451 1450 1463 1462 1452 1451 1452 1453 1454 1456 1457 1456 1458 1459 1460 1462 1463 1465 1467 1469 1470 1472 1473 1475 1477 1479 1481 1483 1486 1487 1488 1490 1491 1492 1493 1494 1495
1470 1473 1476 1478 1478 1473 1454 1452 1455 1456 1452 1451 1451 1451 1452 1452 1453 1455 1456 1457 1458 1459 1461 1462 1464 1466 1468 1470 1471 1472 1473 1475 1477 1478 1481 1482 1484 1485 1486 1487 1488 1489 1490 1491
1467 1466 1467 1468 1467 1458 1454 1454 1453 1452 1451 1451 1450 1451 1451 1452 1453 1454 1455 1456 1457 1459 1460 1461 1463 1465 1467 1469 1470 1470 1472 1473 1474 1475 1478 1480 1481 1482 1483 1484 1484 1485 1487 1488
1462 1461 1463 1463 1458 1455 1453 1452 1451 1450 1450 1451 1451 1450 1451 1452 1452 1453 1455 1456 1457 1458 1459 1460 1462 1463 1465 1467 1468 1469 1470 1471 1472 1473 1475 1476 1477 1478 1479 1480 1482 1482 1483 1484
1460 1460 1461 1460 1456 1454 1452 1451 1451 1451 1450 1450 1450 1451 1451 1452 1452 1453 1454 1455 1456 1457 1458 1459 1460 1461 1462 1464 1466 1467 1468 1469 1470 1471 1471 1473 1474 1475 1476 1477 1478 1479 1481 1482
1457 1457 1458 1456 1452 1453 1452 1451 1451 1451 1450 1450 1450 1450 1451 1452 1452 1452 1453 1454 1455 1455 1457 1458 1459 1460 1461 1462 1463 1465 1466 1467 1467 1468 1469 1470 1471 1472 1473 1474 1475 1476 1478 1479